Location: Middlebury
(44.0153°N, 73.1678°W)
Time: 11:14:59
(UTC-04:00)

QB50P2 - Pass Details

Date: 25 June 2024
Orbit: 561 x 578 km, 98.0° (Epoch: 18 July)

Event Time Altitude Azimuth Distance (km) Brightness Sun altitude
Rises 04:26:34 0° 2° (N) 2,766 ? -7.1°
Reaches altitude 10° 04:28:55 10° 351° (N) 1,863 ? -6.8°
Maximum altitude 04:32:23 28° 292° (WNW) 1,063 ? -6.3°
Drops below altitude 10° 04:35:50 10° 232° (SW) 1,850 ? -5.9°
Enters shadow 04:36:27 - 228° (SW) 2,077 ? -5.8°
